Temp
10 10 11 11 12 12 12 13 13 14 14 14 14 14 14 15 15 15 15 15 14 15 15 15 15 15 15 16 16 16 16 16 16 16 16 15 15 15 15 15 15 15 15 15 15
10 10 11 11 12 12 12 13 13 14 14 14 14 14 14 15 15 15 15 15 15 15 15 15 15 15 15 15 16 16 17 17 16 16 16 16 15 15 15 15 15 15 15 15 14
10 10 11 11 11 12 13 13 13 14 14 14 14 14 14 15 15 15 15 15 15 15 15 15 15 15 15 16 16 17 17 17 16 17 17 16 16 15 15 15 14 14 15 15 15
10 10 10 11 12 12 13 13 14 14 14 15 15 15 15 15 15 15 15 15 15 15 15 15 15 15 16 16 16 16 17 17 17 17 17 16 16 15 15 15 14 14 15 14 14
10 10 11 11 12 12 13 13 14 14 15 15 15 15 15 15 15 16 15 15 15 15 15 15 15 15 16 16 16 16 16 17 17 16 17 16 16 15 15 15 15 14 14 13 13
10 10 11 11 12 12 13 13 14 14 15 15 15 15 15 15 16 16 16 15 15 15 15 15 15 15 16 16 16 16 16 16 17 16 16 17 16 16 15 15 15 14 14 13 13
10 10 11 11 11 12 13 13 14 14 15 15 15 15 15 15 16 16 16 15 15 15 15 15 15 15 16 16 16 16 16 17 17 17 16 16 16 16 16 15 15 14 13 13 12
10 10 11 11 11 12 13 13 14 14 14 15 15 15 15 15 15 16 16 16 16 15 15 15 15 15 15 16 16 16 16 16 16 17 16 16 16 16 16 15 16 14 13 12 12
10 10 11 11 11 12 12 13 13 14 14 15 15 15 15 15 15 15 15 15 15 15 15 15 15 15 16 16 16 16 16 17 16 17 17 16 16 16 16 16 15 15 14 13 12
10 10 11 11 11 12 12 13 13 14 14 15 15 15 15 15 15 15 15 15 15 15 15 15 15 15 16 16 17 16 16 16 17 16 17 17 17 17 16 16 15 16 15 14 13
10 10 11 11 11 12 12 13 13 14 14 14 15 15 15 15 15 15 15 15 15 14 14 14 15 16 16 16 16 17 16 16 17 17 17 17 17 17 17 16 15 16 15 15 14
10 10 11 11 11 12 12 12 13 13 14 14 15 15 15 15 15 15 15 15 15 15 15 15 16 15 16 16 17 17 17 16 17 17 17 17 17 17 17 16 15 15 15 15 14
10 10 10 11 11 11 12 12 12 13 13 14 15 15 15 15 15 15 15 15 14 15 15 15 15 16 16 16 17 17 16 17 17 17 17 17 16 16 16 16 16 15 15 15 14
10 10 11 11 11 11 12 12 12 12 13 15 15 15 15 14 14 15 14 14 14 14 15 15 15 16 16 17 16 16 16 16 16 16 17 16 17 17 16 16 16 15 15 15 15
10 10 11 11 11 11 11 11 11 11 13 15 15 15 14 14 15 14 14 14 14 15 15 15 16 16 16 17 17 16 16 16 16 16 16 16 16 17 17 16 17 15 14 14 14
10 11 11 11 11 11 11 11 10 11 12 14 14 14 14 14 14 15 14 13 14 14 15 15 15 16 16 16 16 16 16 16 16 16 16 15 15 16 16 17 17 16 15 14 14
10 11 11 11 11 11 11 10 10 11 14 14 14 14 14 14 14 14 14 14 14 14 15 15 16 16 16 16 16 16 16 16 16 16 16 14 14 15 16 16 16 16 15 14 13
10 10 11 11 11 11 11 9 9 13 14 14 14 14 14 14 14 14 14 14 14 14 15 15 16 16 16 16 16 16 16 17 15 16 16 14 14 16 16 16 16 16 14 13 13
10 10 11 11 11 11 10 9 11 13 13 14 14 14 13 14 14 14 14 14 15 15 15 15 16 16 16 16 16 16 15 16 15 13 14 13 14 15 15 15 16 16 15 13 13
10 10 10 11 11 10 10 10 12 13 13 13 14 14 14 14 14 14 14 15 15 15 15 15 15 16 16 16 16 16 16 15 15 15 15 15 14 15 15 15 16 16 15 14 13
9 10 10 10 10 10 10 11 12 12 13 13 14 14 15 15 14 15 15 15 15 15 15 15 15 15 15 15 16 15 15 15 15 15 16 15 15 15 15 15 15 15 15 14 13
8 9 9 10 10 10 10 11 12 12 12 13 13 14 14 15 15 15 15 15 15 15 15 15 15 15 15 16 16 15 16 16 16 13 14 13 15 15 15 15 14 14 14 14 13
7 8 9 9 9 9 10 11 11 11 12 12 12 13 13 14 14 15 15 15 15 16 16 16 15 15 15 15 15 15 15 15 15 15 14 14 15 15 15 15 14 14 14 14 13
6 7 8 8 8 8 9 9 10 10 11 11 12 13 13 14 14 14 15 15 15 15 16 15 15 15 16 16 15 15 15 15 15 14 15 14 15 14 14 14 14 14 14 13 12
5 6 7 7 7 7 8 8 9 9 10 11 12 12 13 13 14 14 15 15 15 15 15 15 15 15 15 15 15 15 15 15 14 14 14 14 14 14 13 13 13 13 12 12 12
4 5 6 6 7 7 7 7 8 8 10 10 11 12 12 13 13 14 14 14 15 15 15 14 14 14 14 14 14 14 14 14 13 13 13 13 13 12 12 12 12 12 12 12 12
4 4 5 5 5 6 7 7 7 8 8 9 10 11 12 12 12 13 13 14 14 14 14 14 14 14 12 13 12 12 13 13 13 13 13 12 12 12 12 12 12 12 12 12 12
Height
3169 3168 3167 3166 3165 3164 3164 3163 3163 3163 3163 3164 3165 3167 3168 3170 3172 3174 3178 3182 3184 3186 3188 3189 3191 3193 3194 3195 3195 3195 3197 3197 3197 3198 3199 3199 3199 3200 3201 3200 3199 3199 3200 3201 3200
3168 3167 3166 3165 3164 3163 3163 3162 3161 3161 3161 3162 3163 3164 3165 3166 3169 3171 3175 3176 3180 3183 3186 3189 3191 3193 3195 3196 3196 3196 3197 3198 3198 3198 3199 3199 3201 3202 3203 3202 3201 3201 3201 3203 3203
3167 3166 3165 3163 3163 3162 3162 3161 3161 3160 3161 3161 3162 3162 3163 3164 3167 3168 3172 3174 3178 3181 3184 3188 3190 3193 3195 3196 3197 3197 3199 3199 3199 3199 3200 3200 3201 3203 3203 3204 3203 3203 3203 3204 3205
3166 3165 3164 3162 3162 3161 3160 3160 3160 3160 3160 3161 3161 3162 3162 3164 3168 3166 3169 3173 3177 3180 3184 3187 3190 3193 3195 3196 3198 3199 3200 3200 3200 3200 3201 3202 3203 3204 3205 3206 3205 3204 3204 3206 3206
3164 3164 3163 3161 3160 3160 3159 3159 3159 3159 3160 3161 3161 3162 3163 3164 3165 3165 3169 3172 3176 3180 3183 3186 3189 3192 3194 3197 3198 3200 3201 3200 3200 3201 3202 3203 3204 3205 3206 3207 3207 3206 3205 3207 3208
3163 3162 3161 3160 3159 3158 3158 3158 3158 3158 3159 3160 3161 3162 3164 3165 3165 3166 3168 3172 3176 3180 3182 3185 3187 3191 3194 3196 3198 3199 3201 3201 3201 3202 3202 3204 3204 3206 3207 3208 3208 3208 3208 3208 3209
3161 3160 3159 3159 3158 3157 3157 3157 3157 3157 3158 3159 3160 3162 3164 3166 3165 3167 3169 3171 3175 3179 3182 3183 3186 3190 3193 3196 3198 3199 3202 3202 3202 3203 3203 3204 3206 3206 3208 3209 3209 3208 3209 3209 3210
3158 3158 3157 3157 3156 3155 3155 3155 3155 3156 3157 3158 3159 3161 3163 3164 3165 3167 3169 3172 3175 3178 3181 3182 3186 3190 3193 3195 3198 3199 3200 3201 3201 3203 3204 3206 3207 3207 3208 3210 3210 3210 3210 3210 3211
3155 3155 3154 3154 3154 3153 3153 3154 3154 3155 3156 3157 3159 3161 3163 3163 3165 3166 3169 3172 3175 3177 3180 3182 3186 3189 3193 3195 3197 3197 3198 3199 3201 3202 3204 3206 3207 3207 3208 3210 3211 3211 3210 3211 3212
3152 3152 3152 3152 3152 3151 3151 3152 3153 3154 3155 3156 3158 3163 3162 3163 3164 3166 3168 3170 3173 3176 3179 3183 3186 3188 3191 3193 3195 3195 3196 3197 3198 3201 3203 3205 3206 3207 3208 3210 3211 3212 3212 3212 3213
3148 3148 3149 3149 3149 3149 3150 3151 3154 3154 3153 3155 3156 3158 3159 3162 3163 3165 3167 3170 3172 3176 3178 3181 3184 3185 3189 3191 3192 3193 3193 3193 3195 3198 3202 3203 3204 3206 3207 3209 3210 3213 3213 3213 3214
3144 3145 3145 3146 3146 3146 3147 3148 3150 3151 3152 3152 3154 3156 3158 3160 3162 3164 3167 3170 3172 3174 3177 3182 3182 3185 3187 3189 3190 3191 3192 3192 3193 3196 3199 3200 3202 3204 3206 3207 3209 3212 3214 3214 3214
3140 3141 3141 3142 3143 3144 3145 3146 3147 3147 3148 3149 3151 3154 3156 3159 3161 3163 3166 3168 3171 3174 3177 3180 3183 3184 3185 3187 3189 3190 3191 3191 3192 3194 3196 3198 3200 3201 3203 3204 3206 3208 3211 3212 3213
3136 3136 3137 3138 3142 3141 3142 3143 3144 3145 3145 3146 3147 3150 3153 3156 3160 3162 3165 3169 3170 3174 3176 3179 3180 3182 3184 3186 3188 3189 3190 3191 3192 3194 3195 3196 3197 3197 3199 3201 3202 3204 3207 3210 3211
3131 3132 3133 3135 3136 3138 3140 3141 3142 3144 3144 3142 3142 3145 3150 3155 3157 3159 3163 3166 3169 3172 3176 3178 3178 3180 3182 3185 3186 3189 3189 3190 3191 3192 3193 3194 3196 3193 3195 3196 3196 3198 3202 3205 3208
3126 3127 3129 3131 3132 3134 3136 3138 3141 3145 3138 3136 3137 3140 3146 3151 3154 3157 3160 3164 3168 3170 3173 3174 3176 3178 3180 3182 3184 3186 3188 3189 3189 3189 3190 3190 3193 3190 3190 3191 3192 3192 3196 3200 3203
3121 3122 3124 3125 3128 3130 3133 3136 3140 3137 3133 3133 3133 3137 3143 3146 3151 3153 3156 3158 3163 3167 3169 3172 3174 3176 3178 3180 3182 3184 3186 3187 3188 3187 3187 3188 3190 3187 3186 3185 3184 3186 3190 3195 3198
3115 3117 3118 3120 3122 3125 3129 3133 3133 3128 3129 3129 3131 3135 3138 3143 3147 3149 3153 3156 3159 3163 3166 3169 3172 3173 3175 3178 3180 3181 3183 3183 3185 3184 3186 3186 3185 3183 3182 3181 3179 3181 3185 3190 3192
3110 3110 3112 3115 3117 3120 3124 3125 3123 3125 3125 3127 3129 3131 3134 3139 3143 3147 3149 3152 3155 3159 3164 3165 3168 3170 3173 3174 3178 3178 3180 3181 3182 3184 3185 3183 3182 3181 3179 3178 3176 3177 3180 3183 3187
3104 3105 3106 3109 3111 3114 3117 3116 3119 3121 3123 3124 3125 3127 3129 3133 3139 3143 3146 3148 3151 3155 3160 3163 3166 3166 3168 3171 3173 3174 3176 3180 3180 3182 3182 3180 3180 3179 3178 3176 3175 3174 3175 3179 3183
3097 3099 3100 3103 3105 3108 3107 3110 3113 3117 3120 3121 3121 3123 3125 3128 3133 3137 3141 3145 3147 3151 3156 3160 3162 3165 3165 3167 3168 3171 3172 3174 3177 3178 3177 3177 3177 3176 3177 3177 3176 3175 3175 3176 3180
3090 3093 3094 3097 3099 3099 3101 3105 3109 3111 3115 3117 3119 3120 3121 3124 3127 3133 3137 3140 3143 3147 3151 3155 3158 3161 3163 3163 3164 3166 3167 3169 3172 3175 3174 3175 3174 3172 3173 3174 3174 3174 3175 3175 3177
3084 3086 3088 3091 3091 3093 3097 3099 3102 3105 3110 3113 3115 3117 3118 3121 3125 3128 3132 3136 3139 3142 3145 3149 3152 3156 3158 3161 3160 3161 3163 3165 3167 3168 3169 3171 3169 3168 3169 3169 3170 3170 3171 3171 3171
3079 3081 3082 3083 3086 3089 3093 3095 3097 3100 3104 3107 3110 3113 3116 3118 3121 3123 3127 3131 3134 3138 3141 3143 3145 3147 3149 3150 3154 3155 3157 3158 3162 3163 3164 3163 3164 3164 3163 3164 3165 3165 3165 3165 3166
3072 3073 3075 3076 3080 3084 3088 3090 3092 3095 3099 3101 3104 3108 3112 3115 3117 3120 3123 3126 3130 3133 3136 3138 3139 3141 3143 3144 3146 3148 3150 3152 3155 3157 3159 3159 3159 3160 3159 3160 3159 3159 3160 3161 3162
3067 3069 3070 3072 3074 3078 3082 3085 3089 3091 3094 3096 3099 3102 3107 3111 3114 3116 3120 3122 3125 3129 3131 3133 3135 3136 3138 3139 3141 3143 3145 3148 3150 3152 3153 3154 3154 3156 3155 3155 3155 3155 3155 3156 3157
3061 3063 3066 3066 3069 3073 3076 3080 3084 3088 3090 3092 3095 3097 3101 3104 3108 3113 3116 3119 3122 3125 3127 3130 3132 3133 3135 3136 3138 3140 3140 3142 3145 3146 3148 3148 3149 3149 3150 3149 3148 3146 3145 3147 3149
Wind_Speed
6 5 4 5 5 5 6 6 7 11 14 16 18 19 21 21 22 22 21 21 20 17 13 10 7 5 3 3 6 7 9 12 11 10 5 9 7 7 9 11 11 13 12 13 17
7 6 5 4 5 4 4 4 4 5 6 7 9 11 14 16 16 16 17 17 18 17 15 13 10 7 4 6 8 12 13 9 8 9 7 9 9 7 13 14 13 9 11 12 16
7 8 6 4 4 5 4 3 3 4 4 4 4 5 6 8 10 14 15 16 15 16 16 15 12 9 10 6 10 11 8 6 5 7 5 10 10 8 13 13 12 13 8 12 12
7 8 8 5 4 4 4 3 3 4 4 4 4 4 6 8 6 10 14 15 16 16 16 16 14 12 10 7 8 11 7 5 4 5 8 12 12 12 10 11 8 10 10 10 12
8 9 9 7 4 4 4 3 3 5 5 6 6 7 7 5 7 10 13 15 16 15 15 16 15 15 12 7 8 9 7 4 2 7 14 10 10 7 8 8 9 7 13 14 13
9 9 10 8 6 4 4 4 4 5 6 7 9 9 8 7 9 11 14 15 16 15 14 16 17 16 13 6 6 6 5 2 4 9 10 8 6 5 4 7 7 4 9 14 11
11 10 10 9 7 5 5 5 5 5 7 8 9 11 9 7 9 11 14 17 18 18 16 17 19 18 15 9 7 7 4 3 7 8 10 8 5 3 1 4 5 5 9 12 14
11 11 10 10 8 6 6 5 6 6 7 8 10 12 11 9 12 13 15 16 18 19 19 20 19 17 12 11 8 8 8 8 12 11 11 11 5 6 4 3 5 8 8 11 13
12 12 11 11 8 8 6 6 6 7 7 8 11 13 10 10 13 14 17 19 20 22 21 20 19 16 14 10 10 8 5 10 16 14 12 11 8 10 6 4 4 9 11 10 12
13 12 12 12 9 9 8 7 7 8 9 9 12 12 10 12 14 16 19 20 21 23 22 18 15 16 16 13 9 7 5 8 18 21 17 13 13 12 10 8 7 7 14 14 15
14 13 12 12 11 10 8 7 8 9 11 13 12 14 14 14 15 17 19 20 21 20 19 15 13 14 13 12 11 6 5 2 19 18 19 18 17 14 12 12 11 9 15 18 16
14 14 13 13 12 11 9 8 8 9 10 15 13 18 13 18 19 20 20 21 20 19 17 14 12 12 13 11 7 3 2 3 11 19 17 18 17 19 17 15 14 10 12 18 16
15 14 13 13 12 11 11 8 7 8 10 15 18 17 15 18 20 21 21 19 18 17 16 15 12 11 10 9 8 4 3 7 10 14 16 13 20 21 21 19 18 17 14 17 18
15 15 14 14 13 12 12 9 7 6 6 12 19 20 19 17 19 20 19 17 18 17 15 13 10 11 12 11 10 7 6 7 7 10 7 13 9 19 20 19 22 24 20 17 17
16 16 14 15 14 13 12 10 6 4 3 8 21 22 22 22 13 21 20 20 18 18 17 10 9 14 13 10 7 7 6 3 3 5 6 13 7 12 18 23 23 28 24 21 17
17 17 15 15 15 15 13 11 8 5 7 8 21 25 27 26 14 21 21 21 18 17 15 13 9 13 13 9 11 7 7 3 4 5 6 8 14 11 17 16 19 25 28 24 22
17 18 15 16 17 17 15 14 7 8 5 10 20 27 29 30 20 22 28 29 21 19 19 15 11 13 13 13 11 10 8 2 2 2 1 3 5 11 11 16 23 24 24 26 24
17 19 17 17 19 19 19 20 11 9 10 7 15 23 29 27 26 18 30 29 27 20 16 15 12 15 14 16 13 13 11 5 3 2 3 7 6 4 7 12 13 21 22 27 29
17 19 19 18 21 21 23 23 16 10 13 11 15 22 25 29 26 22 26 31 31 24 14 19 14 17 15 15 16 14 12 10 4 2 3 2 6 13 7 7 6 14 21 27 32
16 19 20 19 22 24 27 29 25 22 11 14 14 18 23 28 24 28 24 27 29 29 21 9 10 17 22 19 18 16 15 6 5 3 3 3 8 6 8 10 8 5 18 24 30
15 17 19 20 23 26 33 33 31 22 17 10 12 14 17 27 30 26 18 15 26 22 19 24 8 13 17 17 18 17 17 10 9 6 4 4 5 6 9 10 7 4 7 19 27
16 15 18 20 26 31 34 31 31 27 23 14 11 12 17 21 30 30 24 20 16 20 23 22 11 13 15 18 20 21 21 21 13 9 12 7 13 12 10 8 10 7 6 11 24
16 16 19 21 28 31 31 32 31 25 27 26 16 12 12 19 19 29 31 24 20 15 18 22 18 13 9 16 21 21 24 22 21 17 16 10 12 14 16 18 16 14 12 13 22
14 13 20 24 29 25 27 27 29 23 28 27 25 19 15 18 17 23 23 26 24 20 18 18 23 23 27 27 20 28 30 28 23 18 17 19 20 18 19 17 17 17 16 18 26
14 16 19 21 30 28 23 20 25 22 18 24 30 25 21 19 21 18 23 21 20 18 17 20 17 24 29 24 24 27 27 30 27 24 17 17 17 22 16 14 14 16 21 24 29
15 16 20 24 24 32 28 23 14 17 19 22 23 29 27 24 21 21 21 24 25 22 19 18 14 18 18 18 17 20 23 20 19 17 18 19 22 18 20 21 22 21 18 23 31
16 16 20 21 22 25 31 28 25 20 15 16 20 19 28 28 24 19 20 22 23 23 22 21 20 15 10 17 16 15 21 19 19 19 16 18 17 11 16 22 21 21 24 25 26
Wind_Direction
333 325 323 308 297 290 279 267 253 244 242 242 242 243 244 242 242 243 240 237 234 234 234 234 222 209 205 126 72 95 85 82 72 75 86 165 173 129 90 78 85 107 97 89 93
328 324 323 317 307 301 287 277 259 235 223 226 229 231 234 236 235 231 226 223 218 215 214 204 194 195 165 141 80 105 105 91 72 80 93 151 151 115 79 71 79 105 117 108 100
323 320 317 317 310 302 291 278 247 217 195 184 197 204 207 212 215 218 209 206 204 197 196 191 183 180 155 135 88 108 107 121 88 90 119 148 139 122 88 86 78 62 142 125 111
316 315 313 312 303 297 290 269 232 207 189 176 178 171 153 149 161 190 192 190 189 189 189 186 180 167 158 132 112 100 136 135 122 99 137 130 114 121 110 98 71 79 96 131 122
304 308 309 307 297 289 275 260 223 202 191 183 168 163 160 165 158 171 176 181 183 181 179 182 176 171 170 160 135 117 109 88 75 141 141 122 111 128 120 98 52 65 103 144 134
295 298 302 302 293 282 267 250 222 200 194 191 183 174 160 152 151 165 171 173 175 175 173 176 179 178 182 178 163 152 125 61 122 143 144 132 128 133 133 100 65 93 105 132 143
288 289 293 297 289 276 260 242 221 198 190 193 193 188 177 166 162 165 174 174 176 175 176 185 188 185 186 196 203 205 188 252 169 165 165 160 166 171 178 97 50 74 118 127 128
284 284 284 290 285 270 260 241 225 202 196 194 192 187 188 185 173 169 173 180 181 178 183 195 195 192 191 209 226 240 257 188 191 171 183 186 192 214 218 153 66 72 123 131 136
279 279 279 281 281 268 257 243 225 210 201 195 190 187 192 191 179 174 173 175 182 184 193 201 201 202 205 225 240 243 174 177 179 192 199 208 225 232 244 206 123 100 119 129 129
274 273 275 273 274 263 255 245 229 213 205 198 191 182 198 187 181 177 174 173 181 189 196 202 207 213 219 231 211 188 230 214 190 196 205 227 234 240 249 230 175 122 119 117 125
270 267 269 268 269 260 253 246 236 229 211 202 197 197 194 185 178 184 180 180 182 193 199 203 209 216 213 197 208 234 261 208 199 202 215 224 242 245 244 234 218 155 134 119 130
267 264 261 263 264 256 248 241 243 240 226 216 207 205 202 194 185 183 185 183 188 194 201 197 186 163 173 188 184 191 212 163 174 202 210 217 226 235 241 247 230 197 168 141 133
266 260 256 255 257 252 244 238 243 248 247 223 212 209 207 201 203 192 189 190 191 190 184 174 165 168 175 180 168 171 147 179 184 184 204 215 225 232 237 244 231 219 198 179 163
262 255 252 247 249 246 239 236 249 265 262 225 212 205 201 186 197 199 197 196 188 188 190 191 192 185 182 183 185 186 173 141 154 181 200 202 224 229 231 231 238 230 213 192 191
259 251 246 237 240 237 233 230 231 224 274 213 197 193 192 191 197 188 194 199 203 199 190 179 185 195 191 189 209 202 199 232 244 223 203 210 219 235 234 238 246 237 222 209 201
257 250 238 234 230 232 226 213 213 217 247 193 185 190 189 193 195 192 185 191 184 189 195 181 177 182 189 205 179 189 198 243 259 264 246 225 220 246 238 252 257 247 231 216 213
255 250 234 230 225 221 213 201 205 215 209 197 189 191 197 192 189 198 192 189 191 193 205 194 189 184 194 188 184 201 186 178 204 203 305 196 221 258 257 261 245 237 239 223 217
255 246 238 224 222 217 205 197 217 225 211 190 190 194 198 197 198 200 200 198 195 200 201 197 193 193 196 201 212 217 214 220 224 241 306 254 244 248 296 288 265 236 226 225 219
256 245 238 222 218 215 203 197 212 234 206 197 189 194 198 201 203 196 200 207 206 198 195 208 209 207 215 223 227 224 212 208 170 252 281 235 285 304 283 337 288 246 228 220 222
253 245 237 220 218 212 208 214 217 222 212 206 203 201 201 199 203 202 202 216 215 212 206 208 205 217 212 220 226 218 198 169 181 183 264 273 300 301 352 350 331 300 227 222 222
255 241 234 217 215 212 210 219 221 215 220 224 213 209 204 203 204 203 211 208 211 209 205 217 199 198 203 199 204 198 194 201 202 199 256 292 294 298 314 328 338 314 259 230 225
252 238 227 216 210 213 218 218 225 225 220 219 216 212 210 209 207 210 210 215 209 202 204 213 226 228 207 209 214 218 220 225 221 227 218 243 276 289 302 297 300 291 271 225 227
248 237 221 214 213 217 221 224 227 223 221 228 230 217 206 203 205 214 216 223 233 222 218 217 213 218 231 231 229 225 231 232 229 237 234 229 261 296 298 286 283 281 268 253 225
239 224 221 215 215 218 222 227 227 232 228 223 227 226 207 198 197 194 202 216 227 231 232 224 220 222 230 234 230 224 237 236 227 228 240 240 268 284 292 282 276 272 269 238 224
237 220 215 217 216 214 216 222 229 225 220 224 226 221 216 207 208 206 202 209 212 212 219 218 225 230 239 247 240 238 239 232 227 233 235 258 273 291 285 282 280 263 247 238 232
243 225 218 219 219 218 216 215 215 204 214 216 220 221 215 211 211 205 205 207 211 216 221 221 224 231 230 231 219 222 220 218 219 227 244 261 274 284 278 279 277 272 267 255 249
246 232 222 224 221 219 224 226 229 224 221 216 218 216 214 213 214 215 211 212 213 214 214 222 227 224 210 202 200 211 208 220 236 255 271 270 285 264 289 298 297 280 263 255 250